Total_Precipitation_Accumulation
1.63 1.67 1.74 1.72 1.71 1.75 1.68 1.63 1.68 1.84 1.88 1.82 1.80 1.81 1.80 1.75 1.79 1.83 1.65 1.79 1.94 1.99 2.02 2.18 2.24 2.36 2.42 2.42 2.53 2.66 2.91 3.14 2.82 2.27 2.14 2.13 2.24 2.22 2.13 1.90 1.68 1.59 1.43
1.65 1.79 1.92 1.98 2.00 1.95 1.76 1.64 1.71 1.81 1.86 1.87 1.86 1.82 1.71 1.73 1.91 1.97 1.86 1.95 2.03 2.00 2.04 2.20 2.11 2.27 2.45 2.41 2.51 2.52 2.63 2.96 2.84 2.56 2.50 2.44 2.42 2.33 2.33 2.14 1.81 1.63 1.55
1.88 2.07 2.29 2.39 2.25 2.07 1.96 1.85 1.87 1.88 1.93 1.99 2.00 2.00 1.97 1.99 2.00 2.08 2.17 2.14 2.07 1.99 2.04 2.06 2.03 2.22 2.22 2.32 2.45 2.42 2.42 2.59 2.76 2.68 2.64 2.72 2.67 2.56 2.47 2.29 2.10 2.03 1.71
1.62 1.91 2.14 2.28 2.14 2.06 2.05 1.92 1.86 1.88 1.98 2.08 2.08 2.20 2.35 2.39 2.38 2.34 2.24 2.16 2.11 2.07 2.05 2.00 1.97 2.00 2.03 2.11 2.23 2.35 2.43 2.56 2.69 2.73 2.76 2.88 2.85 2.89 2.87 2.64 2.52 2.42 2.08
1.43 1.57 1.82 2.09 1.95 1.71 1.67 1.65 1.61 1.70 1.83 2.13 2.27 2.35 2.61 2.73 2.55 2.55 2.47 2.37 2.36 2.19 2.07 1.98 1.85 1.87 1.93 1.96 1.92 2.04 2.19 2.34 2.39 2.48 2.57 2.77 2.84 2.94 2.93 2.77 2.65 2.64 2.45
1.33 1.46 1.64 1.77 1.64 1.48 1.38 1.40 1.44 1.54 1.71 1.89 2.03 2.15 2.20 2.04 2.18 2.19 2.18 2.23 2.26 2.16 2.09 2.03 1.89 1.79 1.75 1.70 1.61 1.63 1.73 1.86 2.05 2.28 2.36 2.56 2.75 2.90 3.10 3.14 2.98 2.79 2.66
1.31 1.35 1.49 1.61 1.61 1.52 1.35 1.35 1.42 1.52 1.66 1.76 1.79 1.86 1.83 1.89 1.91 1.70 1.64 1.62 1.79 1.91 1.98 1.97 1.74 1.58 1.66 1.58 1.60 1.56 1.56 1.68 1.80 2.04 2.22 2.30 2.53 2.74 2.98 3.13 3.12 2.99 2.79
1.33 1.42 1.59 1.76 1.77 1.69 1.63 1.59 1.67 1.75 1.74 1.72 1.77 1.82 1.90 1.88 1.77 1.54 1.52 1.48 1.61 1.73 1.80 1.83 1.80 1.72 1.72 1.76 1.67 1.55 1.47 1.54 1.64 1.60 1.66 1.83 2.10 2.46 2.64 2.69 2.85 2.87 2.73
1.55 1.59 1.66 1.81 1.87 1.89 1.97 2.03 2.08 2.08 1.95 1.91 1.98 2.01 1.98 1.90 1.77 1.56 1.54 1.50 1.61 1.64 1.65 1.66 1.68 1.64 1.72 1.60 1.50 1.48 1.47 1.50 1.48 1.45 1.40 1.45 1.60 1.82 2.16 2.32 2.42 2.39 2.29
1.63 1.79 1.83 1.98 2.10 2.08 2.19 2.33 2.46 2.49 2.38 2.40 2.29 2.14 2.01 1.90 1.87 1.58 1.47 1.41 1.50 1.58 1.66 1.62 1.56 1.44 1.42 1.37 1.35 1.46 1.45 1.43 1.46 1.39 1.30 1.23 1.19 1.34 1.67 1.85 1.94 1.99 1.89
1.78 1.87 1.94 2.12 2.30 2.45 2.64 2.81 2.82 2.76 2.77 2.69 2.44 2.30 2.25 2.19 2.01 1.56 1.37 1.31 1.39 1.55 1.62 1.60 1.51 1.45 1.27 1.23 1.21 1.24 1.27 1.24 1.31 1.36 1.32 1.29 1.30 1.30 1.35 1.50 1.71 1.85 1.82
1.91 2.03 2.19 2.30 2.36 2.48 2.82 2.93 2.90 2.84 2.72 2.54 2.38 2.17 2.06 2.02 1.83 1.55 1.34 1.35 1.47 1.55 1.58 1.53 1.53 1.41 1.20 1.12 1.05 1.04 1.06 1.00 1.02 1.15 1.15 1.11 1.12 1.11 1.15 1.30 1.52 1.68 1.77
1.92 2.11 2.29 2.43 2.63 2.81 2.94 2.88 2.77 2.71 2.60 2.45 2.30 2.11 2.06 2.13 2.04 1.72 1.50 1.47 1.49 1.41 1.41 1.46 1.40 1.26 1.06 0.92 0.91 0.89 0.82 0.80 0.90 1.01 1.03 0.97 0.95 0.99 1.08 1.24 1.39 1.56 1.60
1.80 1.95 2.10 2.18 2.26 2.39 2.57 2.50 2.36 2.33 2.37 2.35 2.29 2.18 2.11 2.11 2.07 1.82 1.57 1.54 1.50 1.44 1.38 1.34 1.21 1.14 1.00 0.90 0.90 0.83 0.76 0.83 0.93 0.97 1.02 1.03 0.99 1.01 1.05 1.11 1.22 1.35 1.44
1.62 1.70 1.74 1.79 1.88 1.98 2.06 2.13 2.09 2.07 2.04 2.04 2.02 1.99 1.89 1.83 1.88 1.72 1.54 1.57 1.63 1.64 1.56 1.47 1.35 1.24 1.10 1.00 0.99 1.01 1.02 1.08 1.08 1.07 1.12 1.17 1.13 1.07 1.04 1.07 1.22 1.26 1.24
1.66 1.61 1.59 1.63 1.68 1.69 1.77 1.79 1.79 1.67 1.57 1.47 1.40 1.37 1.33 1.37 1.47 1.38 1.30 1.37 1.45 1.52 1.43 1.36 1.32 1.25 1.17 1.16 1.20 1.21 1.20 1.21 1.19 1.19 1.21 1.24 1.23 1.15 1.06 1.06 1.18 1.25 1.22
1.79 1.67 1.60 1.52 1.50 1.53 1.58 1.66 1.68 1.56 1.37 1.21 1.12 1.04 0.99 1.05 1.13 1.13 1.14 1.23 1.34 1.41 1.36 1.37 1.34 1.32 1.25 1.23 1.25 1.25 1.21 1.21 1.25 1.26 1.27 1.27 1.32 1.33 1.29 1.24 1.23 1.31 1.32
1.89 1.78 1.62 1.51 1.45 1.45 1.48 1.51 1.59 1.66 1.55 1.36 1.14 0.95 0.85 0.83 0.88 0.97 1.08 1.18 1.27 1.30 1.28 1.33 1.31 1.30 1.27 1.25 1.24 1.26 1.26 1.27 1.27 1.26 1.31 1.34 1.41 1.43 1.46 1.40 1.34 1.34 1.37
1.67 1.61 1.51 1.46 1.44 1.43 1.44 1.43 1.41 1.46 1.46 1.41 1.27 1.10 0.96 0.87 0.86 0.93 0.95 0.98 1.16 1.24 1.25 1.23 1.20 1.17 1.15 1.17 1.16 1.15 1.15 1.16 1.19 1.26 1.27 1.29 1.36 1.36 1.34 1.32 1.33 1.35 1.37
1.66 1.63 1.49 1.43 1.47 1.47 1.45 1.44 1.41 1.46 1.47 1.45 1.34 1.15 1.02 0.90 0.85 0.89 0.90 1.01 1.19 1.22 1.20 1.17 1.17 1.14 1.14 1.14 1.16 1.13 1.12 1.14 1.19 1.29 1.30 1.31 1.35 1.34 1.29 1.30 1.35 1.39 1.36
1.64 1.58 1.47 1.39 1.41 1.47 1.48 1.45 1.39 1.39 1.39 1.42 1.31 1.13 1.01 0.88 0.88 0.93 1.00 1.11 1.21 1.18 1.16 1.13 1.11 1.07 1.06 1.07 1.08 1.10 1.13 1.19 1.23 1.28 1.32 1.35 1.38 1.36 1.32 1.34 1.40 1.45 1.47
1.62 1.55 1.39 1.23 1.22 1.29 1.33 1.34 1.34 1.32 1.32 1.34 1.27 1.07 0.96 0.81 0.86 0.95 1.01 1.09 1.14 1.13 1.11 1.09 1.03 0.95 0.95 0.99 1.03 1.11 1.16 1.19 1.24 1.30 1.33 1.34 1.39 1.36 1.38 1.41 1.43 1.48 1.56
1.53 1.44 1.30 1.12 1.08 1.19 1.25 1.31 1.31 1.27 1.27 1.26 1.15 1.00 0.94 0.92 0.93 0.99 1.05 1.08 1.10 1.12 1.10 1.05 0.98 0.94 0.95 0.98 1.01 1.07 1.13 1.17 1.16 1.19 1.24 1.29 1.36 1.39 1.44 1.46 1.45 1.51 1.55
1.42 1.37 1.32 1.15 1.09 1.22 1.31 1.38 1.34 1.25 1.24 1.19 1.08 1.04 1.01 1.02 1.01 1.00 1.01 1.04 1.06 1.05 1.03 1.01 0.94 0.90 0.89 0.94 0.98 0.99 1.02 1.04 1.04 1.10 1.14 1.22 1.29 1.35 1.40 1.41 1.41 1.42 1.46
1.35 1.34 1.37 1.27 1.19 1.22 1.26 1.29 1.25 1.15 1.11 1.06 1.01 1.04 1.04 1.01 1.02 1.03 1.04 1.07 1.05 1.01 0.95 0.92 0.94 0.94 0.92 0.93 0.94 0.95 0.98 0.91 0.86 0.88 0.92 1.03 1.09 1.19 1.24 1.25 1.29 1.35 1.41
1.27 1.29 1.37 1.32 1.26 1.29 1.34 1.34 1.31 1.23 1.18 1.11 1.06 1.05 1.06 1.05 1.05 1.06 1.06 1.05 1.02 1.00 0.97 0.94 0.91 0.89 0.88 0.84 0.81 0.82 0.79 0.71 0.70 0.77 0.79 0.86 0.95 1.04 1.07 1.07 1.06 1.15 1.24